EW3861 Weather Reports


time (UTC)temp
F
wind
direction
speed
knots
gust
knots
rain 1hr
in
rain 24hr
in
rain mn
in
humidity
%
barometer
mb
20260902101523 58 229 0.0 0.0 0.00 0.00 0.00 97 1019.7
20260902100021 58 229 0.0 0.0 0.00 0.00 0.00 97 1019.4
20260902094520 58 229 0.0 0.0 0.00 0.00 0.00 97 1019.5
20260902093020 58 229 0.0 0.0 0.00 0.00 0.00 97 1019.3
20260902091518 58 229 0.0 0.0 0.00 0.00 0.00 97 1019.3
20260902090018 58 229 0.0 0.0 0.00 0.00 0.00 97 1019.2
20260902084516 59 229 0.0 0.0 0.00 0.00 0.00 97 1019.2
20260902083015 59 229 0.0 0.0 0.00 0.00 0.00 97 1019.2
20260902081516 59 229 0.0 0.0 0.00 0.00 0.00 97 1018.9
20260902080016 59 229 0.0 0.0 0.00 0.00 0.00 97 1019.0
20260902074514 59 229 0.0 0.0 0.00 0.00 0.00 97 1019.2
20260902073012 59 229 0.0 0.0 0.00 0.00 0.00 97 1019.2
20260902071517 59 229 0.0 0.0 0.00 0.00 0.00 97 1019.0
20260902070010 59 229 0.0 0.0 0.00 0.00 0.00 97 1019.0
20260902064510 59 229 0.0 0.0 0.00 0.00 0.00 97 1018.8
20260902063010 59 229 0.0 0.0 0.00 0.00 0.00 97 1018.9
20260902061509 59 229 0.0 0.0 0.00 0.00 0.00 97 1018.8
20260902060008 59 229 0.0 0.0 0.00 0.00 0.00 97 1019.0
20260902054511 59 229 0.0 0.0 0.00 0.00 0.00 97 1019.0
20260902053006 59 229 0.0 0.0 0.00 0.00 0.00 97 1018.9
20260902051506 59 229 0.0 0.0 0.00 0.00 0.00 97 1018.8
20260902050014 59 229 0.0 0.0 0.00 0.00 0.00 96 1018.9
20260902044503 59 229 0.0 0.0 0.00 0.00 0.00 96 1018.7
20260902043003 59 229 0.0 0.0 0.00 0.00 0.00 96 1018.6
20260902041559 59 229 0.0 0.0 0.00 0.00 0.00 96 1018.2
20260902040056 59 229 0.0 0.0 0.00 0.00 0.00 96 1017.9
20260902034555 59 229 0.0 0.0 0.00 0.00 0.00 96 1017.9
20260902033056 59 229 0.0 0.0 0.00 0.00 0.00 96 1018.0
20260902031606 59 229 0.0 0.0 0.00 0.00 0.00 96 1017.9
20260902030053 59 229 0.0 0.0 0.00 0.00 0.00 96 1017.8
20260902024558 59 229 0.0 0.0 0.00 0.00 0.00 96 1017.8
20260902023055 59 229 0.0 0.0 0.00 0.00 0.00 96 1017.9
20260902021601 59 229 0.0 0.0 0.00 0.00 0.00 96 1017.7
20260902020058 60 229 0.0 0.0 0.00 0.00 0.00 95 1017.8
20260902014550 60 229 0.0 0.0 0.00 0.00 0.00 95 1017.9
20260902013048 60 229 0.0 0.0 0.00 0.00 0.00 96 1017.7
20260902011547 60 229 0.0 0.0 0.00 0.00 0.00 95 1017.5
20260902010045 60 229 0.0 0.0 0.00 0.00 0.00 96 1017.8
20260902004544 61 229 0.0 0.0 0.00 0.00 0.00 96 1017.5
20260902003044 61 229 0.0 0.0 0.00 0.00 0.00 95 1017.4
20260902001545 61 229 0.0 0.0 0.00 0.00 0.00 95 1017.4
20260902000042 61 229 0.0 0.0 0.00 0.00 0.00 95 1017.5
20260901234540 61 229 0.0 0.0 0.00 0.00 0.00 95 1017.3
20260901233039 61 229 0.0 0.0 0.00 0.00 0.00 95 1017.3
20260901231539 61 229 0.0 0.0 0.00 0.00 0.00 95 1017.2
20260901230054 61 229 0.0 0.0 0.00 0.00 0.00 95 1017.1
20260901224538 61 229 0.0 0.0 0.00 0.00 0.00 95 1017.1
20260901223047 61 229 0.0 0.0 0.00 0.00 0.00 95 1017.1
20260901221537 61 229 0.0 0.0 0.00 0.00 0.00 95 1017.1
20260901220056 61 229 0.0 0.0 0.00 0.00 0.00 95 1017.3
20260901214536 61 229 0.0 0.0 0.00 0.00 0.00 95 1017.3
20260901213044 61 229 0.0 0.0 0.00 0.00 0.00 94 1017.1
20260901211534 61 229 0.0 0.0 0.00 0.00 0.00 94 1017.2
20260901210034 61 229 0.0 0.0 0.00 0.00 0.00 94 1017.0
20260901204536 61 228 0.0 0.0 0.00 0.00 0.00 94 1016.8
20260901203037 61 148 0.0 0.0 0.00 0.00 0.00 93 1016.8
20260901201530 62 148 0.0 0.0 0.00 0.00 0.00 93 1016.7
20260901200029 62 207 0.0 0.0 0.00 0.00 0.00 93 1016.7
20260901194527 62 163 0.0 0.0 0.00 0.00 0.00 93 1016.7
20260901193031 62 163 0.0 0.0 0.00 0.00 0.00 93 1016.7
20260901191525 63 199 0.0 0.0 0.00 0.00 0.00 93 1016.7
20260901190023 63 199 0.0 0.0 0.00 0.00 0.00 93 1016.4
20260901184538 63 220 0.0 0.0 0.00 0.00 0.00 92 1016.4
20260901183021 63 217 0.0 0.0 0.00 0.00 0.00 92 1016.5
20260901181531 64 231 0.0 0.0 0.00 0.00 0.00 90 1016.5
20260901180018 64 232 0.0 0.0 0.00 0.00 0.00 88 1016.3
20260901174540 65 230 0.0 0.0 0.00 0.00 0.00 85 1015.8
20260901173019 66 228 0.0 0.0 0.00 0.00 0.00 83 1016.3
20260901171518 67 231 0.0 0.0 0.00 0.00 0.00 81 1016.1
20260901170014 67 226 0.0 0.0 0.00 0.00 0.00 84 1016.0
20260901164514 68 248 0.0 0.0 0.00 0.00 0.00 85 1016.1
20260901163013 68 229 0.0 0.0 0.00 0.00 0.00 85 1015.9
20260901161513 68 234 0.0 0.0 0.00 0.00 0.00 86 1015.8
20260901160021 69 234 0.0 0.0 0.00 0.00 0.00 88 1015.9
20260901154510 69 276 0.0 0.0 0.00 0.00 0.00 90 1015.8
20260901153013 69 264 0.0 0.0 0.00 0.00 0.00 92 1016.0
20260901151510 69 267 0.0 0.0 0.00 0.00 0.00 94 1016.1
20260901150012 68 268 0.0 0.0 0.00 0.00 0.00 95 1016.2
20260901144508 68 274 0.0 0.0 0.00 0.00 0.00 96 1016.4
20260901143003 67 277 0.0 0.0 0.00 0.00 0.00 96 1016.2
20260901141501 66 277 0.0 0.0 0.00 0.00 0.00 96 1016.5
20260901140059 66 232 0.0 0.0 0.00 0.00 0.00 96 1016.6
20260901134558 66 232 0.0 0.0 0.00 0.00 0.00 96 1016.6
20260901133057 65 232 0.0 0.0 0.00 0.00 0.00 96 1016.5
20260901131555 65 232 0.0 0.0 0.00 0.00 0.00 96 1016.5
20260901130054 65 232 0.0 0.0 0.00 0.00 0.00 95 1016.7
20260901124554 65 232 0.0 0.0 0.00 0.00 0.00 95 1016.6
20260901123111 65 232 0.0 0.0 0.00 0.00 0.00 95 1016.4
20260901121553 65 232 0.0 0.0 0.00 0.00 0.00 95 1016.5
20260901120058 65 232 0.0 0.0 0.00 0.00 0.00 95 1016.4
20260901114555 65 232 0.0 0.0 0.00 0.00 0.00 95 1016.3
20260901113054 65 232 0.0 0.0 0.00 0.00 0.00 95 1016.1
20260901111602 64 232 0.0 0.0 0.00 0.00 0.00 95 1016.2
20260901110048 64 232 0.0 0.0 0.00 0.00 0.00 94 1016.1
20260901104550 64 232 0.0 0.0 0.00 0.00 0.00 94 1016.1
20260901103047 64 232 0.0 0.0 0.00 0.00 0.00 94 1015.9